User: anonymous   Login
Location: College Park
(38.9810°N, 76.9370°W)
Time: 15:06:40
(UTC-05:00)
Language:

UWE-3 - Orbit

View from above orbital plane
View from above orbital plane
View from above satellite
View from above satellite

Ground track
Ground track

The orbit data is extracted from the following two-line orbital elements,

1 39446U 13066AG  17345.85676542 +.00000286 +00000-0 +44667-4 0  9992
2 39446 097.6103 012.8646 0071654 067.1296 293.7460 14.78109379216857
Epoch (UTC): 11 December 2017 20:33:44
Eccentricity: 0.0071654
inclination: 97.6103°
perigee height: 585 km
apogee height: 685 km
right ascension of ascending node: 12.8646°
argument of perigee: 67.1296°
revolutions per day: 14.78109379
mean anomaly at epoch: 293.7460°
orbit number at epoch: 21685

The dashed part of the orbit path shows where the satellite is in the earth's shadow,  

DLR